N511WM KAYS-KAGS

Flight info

Callsign N511WM
Flight time 0h 39m
Altitude 15000
Route TYFTR CADIE
Aircraft BE60/L-SDFGRY/C

Departure

Time 2026-05-04 02:39
Airport Waycross Ware County Airport (KAYS)

Arrival

Time 2026-05-04 03:18
Airport Augusta Regional At Bush Field (KAGS)
Time Latitude Longitude Altitude Speed Heading
2026-05-04 02:24 31.24971 -82.40066 141 ft 0 kts 268°
2026-05-04 02:30 31.24971 -82.40067 141 ft 1 kts 261°
2026-05-04 02:30 31.24958 -82.40067 141 ft 5 kts 106°
2026-05-04 02:31 31.24989 -82.40033 141 ft 6 kts 318°
2026-05-04 02:31 31.24953 -82.40055 141 ft 10 kts 194°
2026-05-04 02:31 31.24865 -82.40082 141 ft 16 kts 198°
2026-05-04 02:31 31.24738 -82.40082 141 ft 21 kts 179°
2026-05-04 02:32 31.24583 -82.40081 141 ft 22 kts 179°
2026-05-04 02:32 31.24456 -82.40053 141 ft 16 kts 154°
2026-05-04 02:32 31.24340 -82.39993 143 ft 19 kts 155°
2026-05-04 02:32 31.24210 -82.39946 141 ft 20 kts 181°
2026-05-04 02:33 31.24071 -82.39945 140 ft 18 kts 178°
2026-05-04 02:33 31.23970 -82.39943 139 ft 12 kts 179°
2026-05-04 02:33 31.23904 -82.39933 139 ft 6 kts 135°
2026-05-04 02:33 31.23898 -82.39919 139 ft 0 kts 92°
2026-05-04 02:37 31.23898 -82.39917 139 ft 1 kts 92°
2026-05-04 02:37 31.23898 -82.39881 139 ft 8 kts 88°
2026-05-04 02:37 31.23899 -82.39868 139 ft 5 kts 88°
2026-05-04 02:38 31.23914 -82.39816 140 ft 6 kts 23°
2026-05-04 02:38 31.24046 -82.39815 141 ft 48 kts 359°
2026-05-04 02:38 31.24593 -82.39826 177 ft 99 kts 358°
2026-05-04 02:38 31.25353 -82.39863 404 ft 122 kts 357°
2026-05-04 02:39 31.26243 -82.39932 761 ft 131 kts 355°
2026-05-04 02:39 31.27129 -82.40069 1188 ft 132 kts
2026-05-04 02:39 31.28047 -82.39942 1575 ft 132 kts 21°
2026-05-04 02:39 31.28924 -82.39619 1996 ft 132 kts 15°
2026-05-04 02:40 31.29835 -82.39419 2370 ft 136 kts 14°
2026-05-04 02:40 31.30769 -82.39171 2766 ft 136 kts 14°
2026-05-04 02:40 31.31680 -82.38947 3236 ft 133 kts
2026-05-04 02:40 31.32578 -82.38729 3665 ft 131 kts 10°
2026-05-04 02:41 31.33461 -82.38506 4085 ft 129 kts
2026-05-04 02:41 31.34343 -82.38289 4493 ft 130 kts
2026-05-04 02:41 31.35235 -82.38071 4895 ft 132 kts
2026-05-04 02:41 31.36135 -82.37850 5301 ft 132 kts
2026-05-04 02:42 31.37032 -82.37630 5712 ft 132 kts 10°
2026-05-04 02:42 31.37924 -82.37411 6132 ft 130 kts 10°
2026-05-04 02:42 31.38808 -82.37195 6548 ft 129 kts 11°
2026-05-04 02:42 31.39687 -82.36979 6931 ft 129 kts 10°
2026-05-04 02:43 31.40566 -82.36764 7309 ft 129 kts 10°
2026-05-04 02:43 31.41451 -82.36547 7683 ft 130 kts
2026-05-04 02:43 31.42336 -82.36329 8059 ft 130 kts
2026-05-04 02:43 31.43229 -82.36111 8416 ft 133 kts
2026-05-04 02:44 31.44144 -82.35886 8775 ft 135 kts
2026-05-04 02:44 31.45070 -82.35659 9147 ft 137 kts
2026-05-04 02:44 31.46005 -82.35429 9481 ft 141 kts
2026-05-04 02:44 31.46976 -82.35191 9843 ft 143 kts
2026-05-04 02:45 31.47960 -82.34948 10189 ft 145 kts
2026-05-04 02:45 31.48955 -82.34703 10525 ft 147 kts
2026-05-04 02:45 31.49961 -82.34457 10864 ft 148 kts
2026-05-04 02:45 31.50973 -82.34207 11206 ft 149 kts
2026-05-04 02:46 31.51993 -82.33957 11544 ft 150 kts
2026-05-04 02:46 31.53022 -82.33704 11891 ft 152 kts
2026-05-04 02:46 31.54064 -82.33448 12246 ft 153 kts
2026-05-04 02:46 31.55096 -82.33193 12598 ft 154 kts
2026-05-04 02:47 31.56161 -82.32931 12962 ft 155 kts
2026-05-04 02:47 31.57221 -82.32670 13331 ft 156 kts
2026-05-04 02:47 31.58283 -82.32408 13699 ft 156 kts
2026-05-04 02:47 31.59352 -82.32145 14047 ft 157 kts
2026-05-04 02:48 31.60413 -82.31884 14365 ft 158 kts
2026-05-04 02:48 31.61492 -82.31617 14698 ft 159 kts
2026-05-04 02:48 31.62584 -82.31350 14956 ft 166 kts
2026-05-04 02:48 31.63793 -82.31059 14976 ft 188 kts
2026-05-04 02:49 31.65132 -82.30728 14980 ft 205 kts
2026-05-04 02:49 31.66572 -82.30368 14979 ft 218 kts
2026-05-04 02:49 31.68092 -82.29990 14975 ft 228 kts
2026-05-04 02:49 31.69677 -82.29597 14972 ft 237 kts
2026-05-04 02:50 31.71312 -82.29192 14969 ft 243 kts
2026-05-04 02:50 31.72984 -82.28777 14970 ft 247 kts
2026-05-04 02:50 31.74105 -82.28500 14965 ft 250 kts
2026-05-04 02:50 31.76398 -82.27932 14966 ft 253 kts
2026-05-04 02:51 31.78130 -82.27504 14970 ft 255 kts
2026-05-04 02:51 31.79874 -82.27072 14970 ft 257 kts
2026-05-04 02:51 31.81625 -82.26638 14970 ft 258 kts
2026-05-04 02:51 31.83383 -82.26203 14969 ft 258 kts
2026-05-04 02:52 31.84546 -82.25915 14965 ft 259 kts
2026-05-04 02:52 31.86313 -82.25477 14966 ft 259 kts
2026-05-04 02:52 31.88081 -82.25038 14989 ft 260 kts
2026-05-04 02:52 31.89847 -82.24600 14992 ft 260 kts
2026-05-04 02:53 31.91620 -82.24159 14991 ft 261 kts
2026-05-04 02:53 31.93393 -82.23719 14994 ft 260 kts
2026-05-04 02:53 31.95164 -82.23281 14996 ft 260 kts
2026-05-04 02:53 31.96937 -82.22841 15001 ft 260 kts
2026-05-04 02:54 31.98708 -82.22400 14998 ft 260 kts
2026-05-04 02:54 32.00480 -82.21960 14999 ft 261 kts
2026-05-04 02:54 32.02253 -82.21519 15000 ft 261 kts
2026-05-04 02:54 32.04026 -82.21077 15000 ft 260 kts
2026-05-04 02:55 32.07568 -82.20196 15000 ft 260 kts
2026-05-04 02:55 32.09339 -82.19755 15000 ft 260 kts
2026-05-04 02:55 32.11109 -82.19316 15004 ft 260 kts
2026-05-04 02:56 32.12880 -82.18873 15001 ft 260 kts
2026-05-04 02:56 32.14650 -82.18430 15001 ft 260 kts
2026-05-04 02:56 32.16398 -82.17994 14999 ft 260 kts
2026-05-04 02:56 32.18168 -82.17552 14996 ft 260 kts
2026-05-04 02:57 32.19936 -82.17112 14993 ft 260 kts
2026-05-04 02:57 32.21702 -82.16671 14992 ft 259 kts
2026-05-04 02:57 32.23467 -82.16228 14986 ft 259 kts
2026-05-04 02:57 32.25233 -82.15789 14972 ft 259 kts
2026-05-04 02:58 32.27000 -82.15346 14969 ft 260 kts
2026-05-04 02:58 32.28768 -82.14903 14968 ft 260 kts
2026-05-04 02:58 32.30538 -82.14461 14967 ft 260 kts
2026-05-04 02:58 32.32309 -82.14018 14966 ft 260 kts
2026-05-04 02:59 32.34080 -82.13573 14965 ft 259 kts
2026-05-04 02:59 32.35844 -82.13132 14992 ft 259 kts
2026-05-04 02:59 32.37610 -82.12689 15005 ft 259 kts
2026-05-04 02:59 32.39374 -82.12246 14992 ft 259 kts
2026-05-04 03:00 32.41139 -82.11834 14989 ft 258 kts
2026-05-04 03:00 32.42903 -82.11445 14989 ft 258 kts
2026-05-04 03:00 32.44664 -82.11027 14989 ft 258 kts
2026-05-04 03:00 32.46425 -82.10622 14988 ft 258 kts
2026-05-04 03:01 32.48185 -82.10226 14988 ft 258 kts
2026-05-04 03:01 32.49946 -82.09829 14986 ft 258 kts
2026-05-04 03:01 32.51707 -82.09430 14983 ft 258 kts
2026-05-04 03:01 32.53448 -82.09036 14981 ft 258 kts
2026-05-04 03:02 32.55210 -82.08636 14978 ft 258 kts
2026-05-04 03:02 32.56968 -82.08237 14975 ft 258 kts
2026-05-04 03:02 32.58729 -82.07837 14972 ft 258 kts
2026-05-04 03:02 32.60494 -82.07435 14968 ft 258 kts
2026-05-04 03:03 32.62284 -82.07031 14683 ft 268 kts
2026-05-04 03:03 32.64159 -82.06606 14310 ft 279 kts
2026-05-04 03:03 32.66052 -82.06171 13953 ft 274 kts
2026-05-04 03:03 32.67917 -82.05746 13566 ft 271 kts
2026-05-04 03:04 32.69759 -82.05330 13226 ft 269 kts
2026-05-04 03:04 32.71586 -82.04913 12895 ft 266 kts
2026-05-04 03:04 32.73404 -82.04497 12568 ft 265 kts
2026-05-04 03:04 32.75215 -82.04084 12247 ft 264 kts
2026-05-04 03:05 32.77013 -82.03675 11934 ft 262 kts
2026-05-04 03:05 32.78793 -82.03270 11623 ft 260 kts
2026-05-04 03:05 32.80558 -82.02867 11314 ft 257 kts
2026-05-04 03:05 32.82309 -82.02466 11011 ft 255 kts
2026-05-04 03:06 32.84026 -82.02074 10715 ft 253 kts
2026-05-04 03:06 32.85748 -82.01682 10422 ft 251 kts
2026-05-04 03:06 32.87459 -82.01290 10132 ft 250 kts
2026-05-04 03:06 32.89159 -82.00901 9828 ft 248 kts
2026-05-04 03:07 32.90846 -82.00515 9510 ft 246 kts
2026-05-04 03:07 32.92520 -82.00131 9193 ft 244 kts
2026-05-04 03:07 32.94186 -81.99753 8878 ft 243 kts
2026-05-04 03:07 32.95844 -81.99374 8566 ft 242 kts
2026-05-04 03:08 32.97499 -81.99010 8269 ft 241 kts
2026-05-04 03:08 32.99066 -81.98428 7959 ft 228 kts 27°
2026-05-04 03:08 33.00321 -81.97421 7587 ft 209 kts 34°
2026-05-04 03:08 33.01459 -81.96448 7240 ft 194 kts 32°
2026-05-04 03:09 33.02572 -81.95602 6891 ft 185 kts 29°
2026-05-04 03:09 33.03660 -81.94823 6546 ft 181 kts 29°
2026-05-04 03:09 33.04722 -81.94056 6201 ft 175 kts 30°
2026-05-04 03:09 33.05745 -81.93313 5913 ft 177 kts 30°
2026-05-04 03:10 33.06812 -81.92542 5644 ft 182 kts 30°
2026-05-04 03:10 33.07898 -81.91751 5385 ft 184 kts 30°
2026-05-04 03:10 33.08988 -81.90956 5127 ft 184 kts 30°
2026-05-04 03:10 33.10155 -81.90377 4861 ft 182 kts
2026-05-04 03:11 33.11402 -81.90414 4591 ft 179 kts 346°
2026-05-04 03:11 33.12613 -81.90730 4338 ft 178 kts 346°
2026-05-04 03:11 33.13823 -81.91024 4083 ft 176 kts 346°
2026-05-04 03:11 33.14999 -81.91312 3816 ft 170 kts 346°
2026-05-04 03:12 33.16112 -81.91584 3652 ft 156 kts 346°
2026-05-04 03:12 33.17145 -81.91839 3454 ft 149 kts 346°
2026-05-04 03:12 33.18147 -81.92085 3221 ft 142 kts 345°
2026-05-04 03:12 33.19097 -81.92322 2954 ft 138 kts 345°
2026-05-04 03:13 33.20033 -81.92556 2701 ft 137 kts 345°
2026-05-04 03:13 33.20960 -81.92788 2460 ft 135 kts 345°
2026-05-04 03:13 33.21882 -81.93018 2204 ft 136 kts 346°
2026-05-04 03:13 33.22805 -81.93248 1956 ft 136 kts 346°
2026-05-04 03:14 33.23732 -81.93479 1710 ft 135 kts 346°
2026-05-04 03:14 33.24608 -81.93691 1680 ft 123 kts 346°
2026-05-04 03:14 33.25411 -81.93891 1673 ft 114 kts 346°
2026-05-04 03:14 33.26172 -81.94080 1695 ft 110 kts 345°
2026-05-04 03:15 33.26918 -81.94265 1697 ft 108 kts 346°
2026-05-04 03:15 33.27650 -81.94448 1696 ft 107 kts 345°
2026-05-04 03:15 33.28381 -81.94631 1677 ft 109 kts 346°
2026-05-04 03:15 33.29121 -81.94816 1544 ft 110 kts 346°
2026-05-04 03:16 33.29860 -81.95002 1401 ft 107 kts 346°
2026-05-04 03:16 33.30575 -81.95181 1256 ft 103 kts 346°
2026-05-04 03:16 33.31269 -81.95353 1118 ft 102 kts 346°
2026-05-04 03:16 33.31961 -81.95524 999 ft 102 kts 347°
2026-05-04 03:17 33.32656 -81.95699 862 ft 102 kts 348°
2026-05-04 03:17 33.33348 -81.95871 731 ft 101 kts 347°
2026-05-04 03:17 33.34019 -81.96036 596 ft 96 kts 348°
2026-05-04 03:17 33.34651 -81.96194 470 ft 91 kts 348°
2026-05-04 03:18 33.35255 -81.96347 353 ft 88 kts 347°
2026-05-04 03:18 33.35865 -81.96499 231 ft 91 kts 348°
2026-05-04 03:18 33.36447 -81.96645 153 ft 78 kts 348°
2026-05-04 03:18 33.36845 -81.96742 149 ft 43 kts 349°
2026-05-04 03:19 33.37116 -81.96803 149 ft 35 kts 349°
2026-05-04 03:19 33.37344 -81.96861 151 ft 29 kts 348°
2026-05-04 03:19 33.37392 -81.96967 150 ft 18 kts 255°
2026-05-04 03:19 33.37361 -81.97008 149 ft 7 kts 160°
2026-05-04 03:20 33.37299 -81.96984 149 ft 12 kts 167°
2026-05-04 03:20 33.37202 -81.96960 149 ft 16 kts 168°
2026-05-04 03:20 33.37103 -81.96939 149 ft 8 kts 195°
2026-05-04 03:20 33.37081 -81.97012 149 ft 8 kts 283°
2026-05-04 03:21 33.37146 -81.97044 149 ft 13 kts 349°
2026-05-04 03:21 33.37221 -81.97092 149 ft 14 kts 258°
2026-05-04 03:21 33.37199 -81.97165 149 ft 6 kts 212°
2026-05-04 03:21 33.37172 -81.97161 149 ft 0 kts 166°